HYLAS 2

Last updated on Sun Apr 12 2026 00:02:52 GMT+0000 (Coordinated Universal Time)

1 38741U 12043B 26101.22110911 -.00000254 00000+0 00000+0 0 9990 2 38741 2.2534 81.8609 0002897 326.8984 157.7336 1.00270263 50108
UTC large
Height (km)
Speed (km/s)
/
Latitude / Longitude
Inclination (degrees)
Orbital Period (minutes)
Azimuth
Elevation
Range (km)
Doppler Factor

Next 0 passes for location: London (51.5072 / 0.1276)

Sorry there are no passes over London.
HYLAS 2